Terug naar catalogus

ARIANE 44L+ DEB

ActiefGTO
NORAD 23238·DEBRIS·🇫🇷 France

Gelanceerd Apr 15, 1992 vanaf Guiana Space Centre

Loading…

TLE

VersSource: Space-Track

Epoch: Sep 14, 2026, 20:47 UTC

1 23238U 92021H   26257.86610049 -.00000623  00000-0 -38226-1 0  9993
2 23238   3.9601 325.8572 7023214 194.8439 155.9921  2.24464550284196

Volg ARIANE 44L+ DEB in realtime met AllMySat

Download on the App Store